Theta_e
303 304 304 304 304 304 303 303 303 303 303 303 304 304 304 304 304 304 303 303 302 302 302 302 302 302 302 302 302 302 302 303 303 303 303 303 302 301 300 300 299 299 299 299 299 299 299 299 299 299 299 299 299 300 300 300 300 300 300 300 301 301 301 301 301 301 302 302 302 303 303 303 303 303 302 302 303 306 310 314 316 318 321 324 326
303 303 303 303 303 303 303 303 302 303 303 303 304 304 304 304 304 304 303 303 302 302 302 302 302 302 302 302 302 302 302 302 303 303 303 303 302 301 300 299 299 299 299 298 298 298 298 299 299 299 299 299 299 299 299 300 300 300 300 300 300 301 300 300 301 301 301 301 302 302 303 303 303 303 302 302 302 302 305 309 314 318 320 322 325
302 302 302 303 303 303 303 303 303 303 303 303 303 304 304 304 304 303 303 302 302 302 302 302 302 302 302 301 301 302 302 302 302 303 303 302 302 301 300 299 299 299 299 298 298 298 298 298 298 298 298 298 299 299 299 300 300 300 300 299 301 301 301 301 300 301 301 301 301 301 301 302 302 303 302 302 302 302 302 304 309 314 317 321 323
302 302 302 302 302 303 302 302 302 302 303 302 303 303 303 303 303 303 302 302 302 302 302 301 301 302 301 301 301 301 301 302 302 302 302 302 302 301 300 299 298 298 298 298 298 297 297 297 297 297 297 298 298 298 298 299 299 299 299 299 300 301 301 301 301 301 301 301 301 301 301 301 301 302 302 302 302 302 301 301 303 307 311 316 321
302 301 301 302 302 302 302 302 302 302 302 302 302 302 303 303 303 302 302 302 302 302 302 301 301 301 301 301 301 301 301 301 302 302 302 302 301 301 300 299 298 298 298 297 297 297 297 297 297 297 297 297 297 297 297 298 298 298 298 299 299 300 301 301 300 300 300 301 301 301 301 301 301 301 301 301 301 302 301 301 301 302 304 309 314
301 301 301 301 301 301 301 301 301 301 301 301 302 302 302 302 302 302 302 302 302 301 301 301 301 301 301 301 301 301 301 301 301 302 302 302 301 301 299 298 298 297 297 297 297 296 296 296 297 297 296 296 296 296 296 297 297 297 298 298 298 299 300 300 300 300 300 300 300 300 300 300 301 301 301 301 301 301 301 301 301 301 301 302 306
301 301 301 301 301 301 301 301 301 301 301 301 301 302 302 302 302 302 302 302 302 301 301 301 301 301 301 301 300 300 300 301 301 301 302 302 301 300 299 298 297 297 297 297 296 296 296 296 296 296 296 296 296 296 296 296 297 297 297 297 298 298 299 299 299 299 299 300 300 299 300 300 300 300 300 300 300 301 301 301 301 301 301 301 301
301 301 301 301 301 301 301 301 300 300 300 301 301 301 301 302 302 302 302 302 301 301 301 301 301 301 301 300 300 300 300 300 301 301 301 301 301 300 299 297 297 297 296 296 296 296 296 296 296 296 296 296 296 296 296 296 296 297 297 297 297 298 298 298 298 298 299 299 299 299 299 299 299 299 299 300 300 300 300 300 301 301 301 301 301
300 300 300 300 300 301 300 300 300 300 300 300 300 301 301 301 301 301 301 301 301 301 301 301 300 300 300 300 300 300 300 300 301 301 301 301 300 299 298 297 297 296 296 296 296 296 296 296 296 296 296 296 296 296 296 296 296 296 297 297 297 298 298 298 297 297 297 297 298 298 298 298 299 299 299 299 300 300 300 300 300 300 301 301 301
300 300 300 300 300 300 300 300 300 299 300 300 300 300 301 301 301 301 301 301 300 300 300 300 300 300 300 300 300 300 300 300 300 300 300 299 299 298 297 296 296 296 296 296 296 296 296 296 296 296 296 296 296 296 296 296 296 296 297 297 297 297 297 297 296 296 296 297 297 297 297 298 298 298 298 299 299 299 299 300 300 300 300 300 301
301 300 300 300 300 300 299 299 299 299 299 299 300 300 300 300 301 301 301 301 300 300 300 300 300 300 300 300 300 300 299 300 300 300 299 298 297 297 296 296 295 295 295 295 295 295 295 295 296 296 296 296 296 296 296 297 296 297 297 297 296 296 296 296 296 296 296 296 296 297 297 297 297 297 298 298 298 299 299 299 299 299 300 300 300
302 300 299 300 300 299 299 299 299 299 299 299 299 300 300 300 300 300 300 300 300 300 300 299 299 299 300 300 300 299 299 299 299 299 298 297 296 296 295 295 295 295 295 295 295 295 295 295 295 295 295 295 296 296 296 296 296 296 296 296 296 295 295 295 295 295 296 296 296 296 296 296 296 296 297 297 298 298 298 299 299 299 299 299 299
304 301 300 299 299 299 299 299 298 298 298 299 299 299 299 300 300 300 300 300 300 300 299 299 299 299 299 299 299 299 299 299 299 299 298 297 296 295 295 294 294 294 294 295 295 295 295 295 295 295 295 295 295 295 295 296 296 296 295 295 295 295 295 295 295 295 295 296 296 296 296 296 296 296 296 297 297 297 298 298 298 298 298 298 299
304 303 300 299 299 299 299 298 298 298 298 298 298 298 299 299 299 299 300 300 299 299 299 299 299 299 299 299 299 298 298 298 298 298 297 297 296 296 295 294 294 294 294 294 294 294 294 294 294 294 295 295 295 295 295 295 295 295 295 295 295 294 294 294 295 295 295 295 295 295 296 296 296 296 296 296 296 297 297 297 298 298 298 299 299
304 303 301 299 299 299 299 298 298 298 298 298 298 298 298 299 299 299 300 299 299 299 299 299 299 299 299 298 298 298 298 298 298 298 297 297 296 296 296 295 294 294 294 294 294 294 294 294 294 295 295 295 295 295 295 295 295 295 294 294 294 294 294 294 294 294 294 295 295 295 295 295 296 296 296 296 296 296 297 297 297 298 298 298 299
303 304 303 300 299 299 298 298 298 298 298 298 298 298 298 299 299 299 299 299 299 299 299 299 298 298 298 298 298 297 298 298 298 297 296 297 297 296 296 296 294 294 294 294 294 294 294 294 294 295 295 295 295 294 294 294 294 294 294 293 293 293 293 293 293 294 294 294 294 294 294 295 295 295 295 296 296 296 296 297 297 297 298 298 298
304 303 303 302 300 299 298 298 298 298 298 298 298 298 298 298 299 299 299 299 299 299 298 298 298 298 298 298 298 298 297 297 297 296 297 297 297 296 296 295 294 294 294 294 294 294 294 294 294 294 294 294 294 294 294 294 294 293 293 293 293 293 293 293 293 293 293 293 293 293 294 294 294 294 295 295 295 296 296 296 297 297 297 297 297
304 303 303 302 300 299 298 298 298 298 297 297 297 297 298 298 298 298 299 299 299 299 298 298 298 298 298 298 299 298 298 297 297 296 297 297 296 296 295 295 294 294 293 293 293 294 294 293 294 294 294 294 293 294 294 293 293 292 292 292 292 292 293 293 293 293 293 293 293 293 294 294 294 294 294 294 295 295 295 295 296 296 296 297 297
304 303 303 302 301 299 299 298 298 298 297 297 297 297 297 297 298 298 298 298 298 298 298 298 298 298 298 298 298 298 298 297 297 296 296 296 296 296 295 295 294 293 293 293 293 293 293 293 293 293 293 293 293 293 293 293 292 292 292 292 292 293 293 293 293 293 293 293 293 293 294 294 294 294 294 294 294 294 295 295 295 295 295 296 296
305 304 303 302 301 300 299 298 298 297 297 297 297 297 297 297 297 297 298 298 298 298 298 298 298 297 297 297 298 298 298 297 297 297 296 296 296 295 295 294 294 293 293 293 293 293 293 293 293 293 292 292 292 293 292 292 292 292 292 292 293 293 293 293 293 293 293 293 293 294 293 294 294 294 294 294 294 294 294 294 294 294 295 295 295
305 304 303 302 301 300 300 299 298 298 297 297 296 296 296 296 297 297 297 298 298 298 298 298 298 297 297 297 297 297 297 297 297 297 296 295 295 295 294 294 294 293 293 293 293 293 293 293 293 292 292 292 292 292 292 292 292 292 293 293 293 293 293 293 293 293 293 293 293 294 294 294 294 294 294 294 294 294 294 294 294 294 294 294 295
306 305 304 302 302 301 300 299 299 298 297 296 296 296 296 296 296 297 297 297 297 297 298 297 297 297 297 297 297 297 297 297 297 297 297 296 295 295 294 293 293 293 293 293 293 293 293 293 292 292 292 292 292 292 293 292 292 292 293 293 293 293 293 293 293 293 293 293 293 293 293 293 294 294 294 294 294 294 294 294 294 294 294 294 294
306 305 304 303 302 301 300 300 299 299 298 297 296 296 296 295 296 296 296 297 297 297 297 297 297 297 297 297 297 297 297 297 297 297 297 297 296 295 294 292 293 293 293 293 293 293 293 292 292 292 292 292 292 292 292 292 292 292 292 292 292 292 292 292 292 293 293 293 293 293 293 293 293 293 293 293 293 293 293 293 293 293 294 294 294
306 305 305 304 303 302 301 300 299 299 298 297 296 295 295 295 295 295 296 296 296 296 297 297 297 297 296 296 296 297 297 297 297 296 296 296 296 295 294 292 292 292 292 293 292 292 293 292 292 292 292 292 292 292 292 291 292 292 291 291 291 291 292 292 292 292 292 293 293 292 292 292 292 292 292 292 292 292 292 292 292 292 292 292 293
307 306 306 305 304 303 302 301 301 300 299 298 297 296 295 295 295 295 295 296 296 296 296 296 297 296 296 296 296 296 296 296 296 296 296 296 295 294 293 293 292 292 292 292 292 292 292 292 291 291 291 291 291 291 291 291 291 291 291 291 291 291 291 291 291 292 292 292 292 292 292 292 292 292 292 292 292 292 292 291 291 291 291 291 291
307 307 307 306 305 304 303 303 302 301 300 299 297 296 295 294 294 295 295 295 295 296 296 296 296 296 296 296 296 296 296 296 296 296 295 295 295 294 294 293 293 293 293 292 292 292 292 291 291 291 291 291 291 291 290 290 290 291 290 290 290 290 291 291 291 291 291 292 292 292 292 292 292 292 291 291 291 291 291 291 291 291 291 291 291
307 307 306 306 305 305 304 303 302 301 301 300 298 296 295 294 294 294 294 294 294 295 295 296 296 296 295 295 296 296 296 296 296 295 295 295 294 294 294 293 293 293 293 293 293 292 291 291 291 291 290 290 290 290 290 290 290 290 290 289 290 290 290 290 290 290 291 291 291 291 291 292 291 291 291 291 291 291 291 291 291 291 291 291 291
307 306 306 305 305 305 304 304 303 302 301 300 299 297 296 294 294 294 294 294 294 294 295 295 295 295 295 295 295 295 295 295 295 295 295 294 294 293 294 293 293 293 293 293 293 292 291 291 290 290 290 289 289 289 289 289 289 289 289 289 289 290 290 290 290 290 290 290 291 291 291 291 291 291 291 291 291 291 291 291 292 292 292 292 292
306 306 305 305 305 304 304 304 303 302 302 301 299 298 296 295 294 294 294 294 294 294 294 294 295 295 295 295 295 295 295 295 295 295 295 294 293 293 293 293 293 292 292 292 293 293 292 291 290 290 290 290 290 289 289 289 289 289 289 289 290 290 290 290 290 290 290 290 290 290 290 290 290 290 291 291 291 291 291 291 291 291 291 291 291
306 306 305 305 304 304 303 303 303 303 302 301 300 298 297 295 294 294 293 293 293 293 294 294 294 295 295 295 295 295 295 295 295 295 294 294 293 293 292 292 293 292 291 291 292 293 292 291 291 291 290 290 291 290 290 290 290 289 289 290 290 290 291 290 290 290 290 290 290 290 290 290 290 290 291 291 291 291 291 291 291 291 291 291 291
306 306 305 305 304 304 303 303 302 302 302 301 300 299 298 296 295 294 293 293 293 293 293 294 294 294 294 294 294 295 295 295 295 295 294 294 293 292 292 292 292 291 291 291 291 292 292 291 291 291 290 290 291 291 291 291 290 290 290 290 290 290 290 290 290 289 290 290 290 289 289 290 290 290 290 291 291 291 291 291 291 291 291 291 291
306 306 305 305 304 304 303 303 302 302 302 301 301 299 298 297 296 294 293 293 293 293 293 293 293 294 294 294 294 294 294 294 294 294 294 294 293 292 291 291 291 291 291 290 290 291 292 291 290 290 289 289 290 290 290 290 290 290 290 290 290 290 290 290 289 289 289 289 289 289 289 289 289 289 290 290 290 290 290 290 290 290 291 290 290
305 305 305 305 305 304 303 303 302 302 302 302 301 300 299 298 296 295 294 293 293 293 293 293 293 293 294 294 294 294 294 294 294 294 294 293 292 292 291 291 291 290 290 290 289 290 290 290 289 288 288 288 288 288 288 288 288 288 289 289 289 290 290 290 290 289 289 289 289 289 289 289 289 289 289 289 289 289 289 290 290 290 290 289 290
305 305 305 305 305 304 303 303 302 302 302 302 301 301 300 299 297 296 295 293 293 293 292 293 293 293 293 293 294 294 294 294 294 293 293 293 292 291 291 290 290 290 290 289 289 289 289 289 288 288 287 287 287 286 286 286 286 287 288 288 288 288 289 289 289 289 289 289 289 289 289 289 289 289 289 289 289 289 289 289 289 289 289 289 289
305 304 305 305 304 304 303 302 302 301 302 302 302 301 300 299 298 297 296 294 293 293 293 293 293 293 293 293 293 293 293 293 293 293 293 293 292 291 290 290 289 289 289 288 288 288 288 288 288 287 287 286 286 286 285 286 286 286 286 287 287 287 288 288 289 289 289 289 289 289 289 289 289 289 289 288 288 288 288 288 288 288 288 288 288
304 304 304 304 304 304 303 303 302 302 302 302 302 301 301 300 299 298 297 295 294 293 293 293 292 292 293 293 293 293 293 293 293 293 293 293 292 291 290 289 289 289 289 288 287 287 287 287 288 287 286 285 285 285 285 286 285 285 285 286 286 287 287 288 288 288 289 288 289 289 288 288 288 288 288 288 288 288 288 288 288 288 288 288 288
304 304 303 303 303 304 304 303 303 303 302 301 301 301 301 300 299 298 297 296 295 293 293 292 292 292 292 293 293 293 293 293 293 293 293 293 291 290 289 289 289 288 288 287 287 287 287 287 287 286 286 285 285 285 285 285 285 285 285 286 286 286 287 287 287 287 287 287 287 287 287 287 287 287 287 287 287 287 287 287 287 287 287 287 287
303 303 303 303 303 303 303 303 303 302 302 301 300 301 300 300 299 298 297 296 295 294 293 292 292 292 292 292 292 293 293 293 293 293 293 292 291 290 289 289 288 288 287 287 287 287 287 286 286 286 285 285 285 285 285 285 285 285 286 286 286 286 286 286 286 286 286 286 287 287 286 286 286 287 287 286 286 286 286 286 286 286 286 286 286
303 303 302 302 302 302 302 302 302 301 301 300 299 299 299 299 299 298 297 296 295 294 293 292 292 292 292 292 292 292 292 292 293 293 292 291 290 289 288 288 288 287 287 287 287 287 287 286 285 285 285 285 285 285 285 285 285 285 285 285 285 286 286 286 286 286 286 286 286 286 286 286 286 286 286 286 286 285 285 285 285 285 285 285 285
302 302 301 300 300 301 300 300 300 300 299 299 299 298 298 298 298 298 298 297 296 295 293 292 292 292 291 291 292 292 292 292 292 292 291 290 289 288 288 287 287 287 287 287 287 287 286 285 285 285 285 285 285 285 285 285 285 285 285 285 285 285 285 285 285 286 286 286 285 285 285 285 285 285 285 285 285 284 284 284 285 285 285 285 285
301 301 300 299 298 299 299 299 298 298 298 298 298 298 297 297 297 297 297 297 296 295 294 293 292 291 291 291 291 291 291 291 291 291 290 289 288 288 287 287 287 287 287 287 287 286 286 285 285 285 285 285 285 285 285 285 285 284 284 284 284 284 284 285 285 285 285 285 284 283 283 283 284 284 284 284 283 283 283 284 284 284 284 284 284
299 299 298 297 297 298 298 297 297 297 297 298 298 298 297 297 297 297 296 296 295 295 294 293 292 291 291 291 291 291 290 290 291 290 289 288 288 287 287 287 286 287 287 287 287 286 285 285 285 285 285 285 285 285 285 284 284 283 283 284 284 284 284 285 284 284 284 284 283 282 283 283 283 284 284 283 283 283 283 283 283 283 283 283 283
297 297 297 296 297 297 297 297 297 297 297 297 297 297 296 296 296 296 296 296 295 294 293 293 292 291 291 290 290 290 290 290 290 290 289 288 287 287 287 286 286 286 287 287 287 286 286 286 286 286 286 285 285 285 284 283 283 283 283 283 283 283 283 283 283 282 283 283 282 282 283 283 283 283 283 282 283 283 283 283 283 282 282 283 283
296 296 296 296 296 296 296 296 296 296 296 296 296 296 296 295 295 295 295 295 295 294 293 293 292 291 290 290 290 290 290 290 290 289 289 288 287 287 287 286 286 286 287 287 287 286 286 287 286 286 285 285 285 285 284 283 283 282 282 282 283 283 282 281 281 281 282 282 282 282 282 282 283 283 282 282 283 283 283 283 283 282 283 282 281
295 295 295 295 295 295 295 296 296 296 296 295 295 295 295 294 294 294 294 294 294 294 293 293 292 291 290 290 290 290 290 290 289 289 288 288 287 287 286 285 285 286 286 287 287 286 287 287 286 285 285 285 285 284 283 282 282 282 282 281 281 281 281 280 280 282 282 282 281 281 282 282 282 282 282 282 282 283 283 283 283 283 283 282 280
293 293 294 294 294 294 294 295 295 295 295 295 294 294 293 293 293 293 293 293 293 293 292 292 291 291 290 290 289 289 289 289 289 289 288 288 287 287 286 285 285 286 286 286 287 287 286 286 285 285 285 284 284 283 283 282 282 281 280 279 279 280 280 280 280 281 282 281 280 281 281 281 281 281 282 282 282 283 283 283 283 282 282 282 281
292 292 292 293 293 293 293 293 294 294 294 294 293 293 293 292 292 292 292 292 292 292 291 291 290 290 290 289 289 289 289 289 289 289 288 288 287 286 286 285 285 286 286 286 286 286 285 284 284 284 284 284 283 283 282 281 281 280 279 279 280 280 279 279 280 281 281 281 280 280 281 281 280 280 282 282 282 283 283 282 283 282 282 282 282
291 291 291 292 292 292 292 293 293 293 293 293 292 292 292 292 291 291 291 291 291 291 291 290 290 289 289 288 288 288 288 288 288 288 288 287 286 286 285 285 285 286 286 286 286 285 284 283 283 283 283 283 283 282 281 280 279 279 279 280 280 279 279 279 280 281 281 281 281 280 280 280 279 279 281 282 282 282 282 282 282 282 282 282 282
290 290 290 291 291 291 292 292 292 292 292 292 292 291 291 291 291 291 291 290 290 290 290 289 289 288 288 288 288 288 288 288 287 287 287 286 286 285 284 285 285 285 285 285 285 284 283 283 283 283 283 282 282 281 280 279 279 279 279 280 280 279 279 279 280 281 281 280 280 279 278 279 279 278 280 282 282 281 281 282 281 281 281 282 282
290 290 290 290 290 290 290 291 291 291 291 291 291 291 291 290 290 290 290 290 289 289 288 288 287 287 287 287 287 287 287 287 287 287 286 286 285 284 284 285 285 285 285 285 284 283 283 283 283 283 282 282 281 281 280 279 279 279 279 280 279 279 279 279 279 280 280 280 280 279 277 277 278 277 278 280 281 281 281 281 280 280 280 282 282
291 290 289 289 289 289 289 290 290 290 290 290 290 290 290 290 289 289 289 289 289 288 288 287 287 286 286 287 286 286 286 286 286 286 286 285 285 284 284 284 284 285 285 284 283 283 283 283 283 282 282 281 281 280 280 279 279 279 279 279 279 279 278 278 278 278 278 279 279 278 276 276 276 277 277 276 277 280 281 280 280 280 280 281 281
Wind_Speed
24 22 20 19 18 17 16 15 14 13 12 11 10 9 9 9 9 9 9 10 10 11 11 12 13 13 14 14 13 14 14 14 14 14 14 14 13 12 11 11 11 11 12 13 13 14 15 16 16 15 15 15 15 15 14 14 14 15 14 13 11 12 14 14 14 14 15 15 15 15 14 15 16 16 16 17 19 21 22 23 23 23 22 21 20
25 23 22 20 19 18 17 17 16 15 14 12 11 10 10 10 10 10 10 11 11 11 12 13 13 14 14 14 13 13 13 14 14 14 14 14 13 13 12 11 11 12 12 13 13 14 15 15 15 15 14 14 14 14 13 13 14 14 13 10 10 13 14 14 13 13 14 15 16 16 16 17 17 16 16 17 18 19 21 22 23 23 23 22 22
27 25 23 22 21 20 19 19 18 16 15 14 12 11 11 11 11 11 11 11 12 12 13 13 14 14 14 14 14 13 13 14 14 14 14 14 13 13 12 12 12 12 13 13 13 13 13 13 14 14 14 13 13 12 12 13 13 12 10 9 11 14 14 14 13 13 14 15 15 16 17 18 18 17 16 17 17 18 19 21 23 24 24 23 23
28 27 25 23 22 21 21 20 19 18 16 15 13 12 12 12 12 11 12 12 12 13 13 14 14 15 15 14 14 14 14 14 14 14 14 14 13 13 13 13 13 12 12 12 12 12 12 12 12 12 12 12 11 11 12 13 13 11 10 11 13 15 15 15 14 14 16 15 15 16 17 18 18 18 17 17 17 17 18 19 21 23 24 24 24
30 28 27 25 24 23 23 21 20 19 17 16 15 14 13 13 13 12 13 13 13 14 14 14 15 15 15 15 15 14 14 14 14 14 14 14 14 14 14 14 13 12 12 11 11 11 11 11 11 10 10 10 10 11 12 12 11 10 11 13 14 16 16 16 16 17 17 17 17 17 18 18 18 18 18 18 17 17 17 17 19 20 22 23 24
32 30 29 27 26 25 24 23 21 20 19 17 16 16 15 15 14 14 14 14 15 15 15 15 15 15 15 15 15 15 15 14 15 15 14 14 14 14 14 14 13 12 11 10 10 10 10 10 10 10 9 10 10 10 11 11 11 10 12 13 14 15 16 16 16 18 18 18 18 19 19 19 19 19 19 19 18 17 17 17 17 18 19 21 23
34 32 31 30 29 27 26 24 23 21 20 19 18 18 17 17 16 15 15 16 16 15 15 14 14 15 15 15 15 15 15 14 15 15 15 14 14 14 14 13 13 12 11 10 10 9 9 10 9 9 9 10 10 10 11 11 11 11 12 13 14 15 15 15 16 17 18 18 18 18 19 19 19 19 19 20 20 19 18 18 18 17 18 19 20
36 34 33 32 31 29 27 26 25 23 22 22 21 20 19 18 18 17 17 17 16 15 15 14 14 15 15 15 15 15 15 15 15 15 15 14 14 14 13 12 12 11 11 10 10 10 10 10 9 9 9 9 10 11 11 10 11 11 12 13 13 14 15 15 16 17 17 17 17 18 18 19 19 19 20 20 21 21 20 20 19 19 18 19 19
38 37 35 34 33 30 29 27 26 25 25 24 23 22 21 20 19 18 18 17 16 16 15 15 15 15 15 15 15 15 15 15 15 15 14 14 13 12 12 12 11 10 10 10 10 10 10 11 10 10 10 10 10 11 11 10 10 11 12 13 13 14 15 15 15 15 15 15 16 16 17 18 18 19 20 21 21 21 22 21 21 21 20 20 20
39 38 37 36 35 32 31 29 28 27 27 26 25 24 23 22 21 20 19 18 17 16 16 15 15 15 15 16 15 15 14 14 14 14 13 12 11 11 11 11 10 9 9 9 9 9 10 10 10 11 11 11 11 11 10 10 10 11 12 12 13 14 14 14 14 14 14 14 15 15 16 17 18 19 20 21 21 21 22 22 22 22 21 21 21
40 40 40 39 37 34 33 31 30 30 29 28 27 26 25 24 22 21 20 19 18 17 16 15 15 15 15 15 15 14 14 13 13 13 11 10 10 10 11 11 10 9 9 8 8 8 9 9 10 10 11 11 11 11 10 10 11 11 11 11 12 12 12 12 13 13 14 14 14 15 16 17 17 18 20 20 21 22 22 22 22 22 22 22 22
41 42 41 40 38 36 35 33 32 32 31 30 29 28 26 24 23 22 21 20 19 18 17 16 15 15 14 14 14 14 14 13 13 12 10 9 9 9 10 10 10 8 8 8 8 8 8 9 9 9 9 10 10 10 10 10 10 10 10 10 10 10 11 11 12 13 13 14 15 15 16 16 16 17 18 20 21 22 23 23 23 23 23 23 23
43 43 43 42 40 37 36 35 35 33 32 31 29 28 26 25 24 23 22 21 20 19 17 16 15 14 13 12 13 13 13 12 12 11 10 11 10 7 7 8 8 7 7 7 7 7 7 8 8 8 8 8 8 9 9 9 9 9 9 9 9 9 10 10 11 12 13 14 14 15 15 16 16 17 18 19 20 21 23 23 24 24 24 24 24
44 43 43 43 41 39 38 37 36 34 33 32 31 29 28 27 26 25 23 22 21 20 19 17 15 14 13 12 12 12 12 12 12 11 11 12 11 9 9 9 8 6 6 7 7 7 7 7 7 7 7 7 7 7 7 7 7 7 7 7 7 8 9 10 11 12 13 13 14 14 15 16 17 17 18 18 19 20 22 23 24 26 26 26 26
45 44 44 44 42 40 39 38 37 36 35 34 33 32 31 30 28 26 25 23 22 21 20 19 17 15 13 11 10 10 12 12 10 8 9 11 13 15 15 14 12 8 7 7 7 7 7 7 7 7 6 6 6 5 5 5 5 5 4 5 5 6 7 8 10 11 12 13 13 14 15 16 17 17 18 19 20 20 21 22 24 25 26 28 28
46 45 44 44 43 41 40 39 38 37 37 36 35 34 33 32 30 28 27 25 24 23 22 20 19 16 12 10 9 10 11 9 6 6 8 11 13 13 13 13 13 10 9 9 9 8 7 7 7 6 6 5 5 4 4 3 3 3 3 3 4 5 6 7 9 10 11 12 13 14 15 16 17 18 19 20 20 21 21 22 23 24 25 26 27
47 47 46 44 44 42 41 40 40 39 38 38 37 35 34 33 31 30 28 27 26 25 23 22 20 18 15 13 11 9 8 7 7 8 11 11 11 10 9 9 11 10 10 11 11 9 8 7 7 6 5 4 3 3 3 2 2 3 3 3 4 5 6 8 9 10 11 12 13 14 15 16 17 18 19 19 20 21 21 22 22 23 23 24 25
49 48 47 45 44 43 42 42 41 41 40 39 38 37 36 34 33 31 29 28 28 27 26 24 22 20 19 17 15 12 11 11 11 11 11 11 12 11 9 8 9 10 10 10 10 10 8 8 7 5 3 2 2 2 2 2 2 3 4 5 6 7 8 9 9 10 12 13 14 15 16 17 17 18 19 19 20 21 21 22 22 23 23 23 24
51 49 48 47 45 44 43 43 42 41 40 40 40 39 37 36 34 33 31 31 31 29 28 26 24 22 20 18 16 15 15 15 14 12 11 12 13 12 11 11 10 10 10 10 9 9 8 8 7 4 2 1 1 2 2 2 3 4 6 7 8 9 10 11 11 12 13 14 15 16 17 18 18 19 19 20 20 21 21 22 22 23 23 24 24
50 50 49 48 47 45 44 44 43 42 42 42 41 40 38 37 36 35 34 33 33 31 30 29 26 23 21 19 17 16 16 16 16 15 14 13 14 13 13 12 10 10 11 10 9 9 8 8 7 4 2 2 2 3 3 3 4 7 10 11 12 13 14 14 15 15 16 17 17 18 18 19 19 20 20 20 20 21 21 21 22 22 23 24 24
49 50 50 49 48 47 46 45 44 44 43 43 42 40 40 39 38 37 36 35 34 33 32 30 28 25 23 21 19 17 16 16 17 17 16 15 15 14 12 10 11 11 11 10 10 9 8 8 6 5 3 3 4 5 4 5 7 11 13 14 15 16 17 18 19 20 20 21 21 21 21 21 21 21 21 22 22 21 22 22 22 22 23 24 24
48 50 50 50 49 48 47 46 45 45 44 43 43 42 41 41 40 39 37 36 35 34 33 30 28 26 25 23 21 19 18 17 18 18 18 17 16 16 14 11 12 12 10 10 11 10 9 8 7 6 4 4 5 5 5 7 11 14 15 17 18 19 20 21 22 22 23 23 24 24 24 24 24 25 24 24 24 24 24 24 24 24 24 24 24
47 48 49 49 50 49 48 48 47 46 45 44 44 43 43 42 41 40 39 37 36 35 33 31 30 28 27 26 23 21 20 18 18 18 18 18 18 18 17 13 12 11 9 9 11 11 10 8 7 7 6 5 6 6 8 11 14 16 18 19 20 21 22 23 24 24 24 25 26 26 27 27 28 28 28 28 27 27 27 27 27 27 27 27 26
46 46 47 48 50 50 50 49 49 48 47 45 44 44 43 43 42 42 40 39 38 36 35 34 32 31 29 27 24 22 21 19 18 18 18 18 18 18 18 15 13 13 11 9 10 11 11 9 9 8 7 7 7 8 12 14 16 18 19 20 21 22 22 23 24 25 26 26 27 28 28 29 30 31 31 31 31 31 31 31 31 31 31 31 30
45 45 46 47 49 50 50 50 50 49 47 46 45 44 44 44 44 43 42 40 39 38 37 35 34 32 29 27 25 24 22 20 19 19 18 18 17 17 17 16 15 15 14 12 10 11 11 10 10 10 9 8 8 11 13 16 17 18 19 20 21 22 23 24 25 26 26 27 27 28 29 30 31 32 32 33 33 34 34 34 34 34 34 33 33
44 43 43 45 46 47 48 48 48 48 47 47 46 45 45 45 45 44 42 41 40 39 37 36 34 31 29 28 27 25 23 21 20 20 19 19 18 16 16 17 17 18 18 15 12 12 11 11 12 11 9 8 9 13 15 17 19 20 21 21 22 23 24 25 26 26 27 28 28 29 30 31 31 32 33 33 34 35 36 36 36 36 36 36 36
42 42 42 43 44 44 46 47 47 47 47 47 47 46 46 46 46 45 43 42 41 40 38 36 35 33 31 30 28 26 24 23 21 21 20 20 19 17 16 16 17 18 19 18 16 13 12 12 13 12 10 10 12 14 17 19 21 22 23 23 24 24 25 26 26 27 27 28 29 30 31 32 32 33 33 34 35 35 36 36 36 36 37 37 38
41 41 41 42 42 43 44 44 45 46 47 47 47 47 47 47 47 46 45 43 42 41 39 37 36 34 33 31 29 27 25 24 23 22 22 21 20 18 17 17 17 18 19 19 17 14 13 13 14 13 12 13 16 18 19 21 23 24 24 25 26 26 26 26 27 27 28 28 29 30 31 32 33 34 34 35 35 35 35 36 36 37 38 38 40
41 41 41 41 41 41 42 43 44 45 46 47 47 48 48 48 47 47 46 44 43 42 40 39 37 36 34 33 31 29 27 26 25 24 23 22 21 19 18 18 18 18 17 17 17 16 14 13 13 14 15 16 18 20 22 23 23 25 26 26 27 28 28 28 28 28 28 28 29 30 31 32 33 34 34 35 35 35 36 36 37 38 39 39 40
42 42 42 42 41 41 41 42 42 43 45 46 47 48 48 48 48 47 46 45 44 43 42 40 39 37 36 34 32 30 29 28 27 26 25 23 22 21 20 20 20 19 18 18 18 17 16 15 14 15 17 17 17 18 20 22 23 25 26 26 27 29 29 29 29 29 29 29 29 30 30 31 32 33 33 34 35 36 36 37 38 39 40 40 40
44 44 44 43 42 42 42 41 42 42 44 45 46 48 48 48 48 48 48 47 46 45 44 42 41 39 38 36 34 33 31 30 28 27 26 25 24 22 22 21 21 20 20 19 18 18 17 17 17 17 18 18 16 15 18 19 21 23 24 26 27 28 29 30 29 29 30 30 30 30 30 31 31 32 33 34 35 36 37 38 38 39 40 41 41
46 46 45 44 44 43 42 42 42 42 43 44 45 47 48 49 49 49 49 48 47 46 45 44 43 41 40 38 37 35 33 31 30 29 27 26 25 24 23 22 22 22 22 22 21 19 18 18 18 17 19 20 17 15 17 18 19 20 21 23 25 27 28 29 30 30 31 31 30 30 30 31 32 32 33 34 35 36 37 38 39 39 39 40 41
49 48 47 46 45 44 44 44 43 42 42 42 43 45 47 49 49 50 50 49 49 48 47 46 44 43 42 40 38 36 34 33 31 30 28 27 26 25 24 24 23 24 24 23 23 20 17 17 18 17 19 21 19 17 18 19 18 18 19 21 23 25 26 28 29 29 30 31 30 30 30 31 32 33 34 35 35 36 37 38 38 39 39 39 40
52 51 50 48 47 46 46 46 45 43 42 42 43 44 46 48 50 51 51 51 51 50 49 48 46 45 43 41 39 37 35 34 32 31 29 28 27 26 25 25 24 25 25 24 24 22 18 16 18 19 19 21 20 18 19 21 21 20 20 20 22 24 25 26 28 28 29 29 29 30 30 31 32 33 34 35 36 37 37 38 38 38 38 39 39
54 53 52 50 49 49 49 48 47 46 44 43 43 45 46 47 49 50 52 52 52 52 51 49 48 46 45 43 41 39 37 36 34 32 31 30 28 27 26 26 25 25 25 24 24 23 20 17 18 20 20 21 21 20 20 22 24 23 22 22 23 24 25 26 28 29 29 30 31 31 31 32 33 34 35 35 36 36 37 38 38 38 39 39 39
55 55 55 53 52 51 51 51 50 48 46 45 45 46 47 47 48 50 51 52 52 52 51 50 49 48 47 45 43 41 39 37 35 34 33 31 30 29 28 27 26 25 25 24 24 23 23 20 18 19 21 22 22 22 22 23 25 26 26 25 26 26 27 28 30 31 32 32 33 34 34 35 35 36 36 37 37 37 38 38 38 39 39 39 39
55 55 56 55 55 55 55 54 52 51 49 48 47 47 47 48 48 49 50 51 52 52 52 51 50 49 48 46 44 42 41 39 37 36 34 33 31 30 29 27 26 25 24 24 24 24 24 22 20 19 20 22 22 22 22 23 25 26 27 28 29 30 31 32 32 32 33 34 35 35 35 35 36 37 38 38 39 39 39 38 38 38 39 39 39
55 55 56 56 56 57 57 56 54 53 52 50 49 48 47 48 48 49 49 50 51 52 52 51 50 50 49 47 45 44 42 41 39 37 35 33 32 30 29 28 27 25 24 24 24 24 24 23 21 20 20 21 21 22 22 23 25 27 29 30 30 30 32 34 35 34 35 35 36 35 36 37 37 38 38 39 40 40 39 39 39 38 39 39 40
54 55 56 56 56 57 58 57 56 55 54 52 50 49 48 48 48 49 49 50 51 52 52 52 51 51 50 49 47 46 44 42 39 37 35 34 32 31 30 29 27 26 25 25 24 24 23 23 22 21 20 20 20 22 23 23 26 27 29 32 32 32 32 34 35 35 35 36 36 37 38 38 40 41 42 43 43 43 43 42 41 41 41 42 43
53 54 55 55 55 55 56 57 57 56 55 53 52 51 50 50 50 50 50 50 51 52 53 53 52 52 51 50 48 46 44 42 40 38 36 34 32 31 30 29 28 27 26 25 24 23 23 22 22 22 21 20 20 22 24 25 26 27 28 30 33 34 34 35 35 36 36 36 38 39 40 41 43 44 44 45 45 45 45 45 45 45 45 45 46
51 53 53 54 54 54 55 56 56 55 55 55 54 53 52 51 51 51 51 51 52 52 53 53 54 53 52 50 49 47 45 42 40 38 36 34 33 31 30 29 29 28 26 24 23 22 22 23 22 21 21 20 20 22 24 25 26 27 27 29 32 34 35 37 37 36 36 38 41 43 43 44 45 46 46 47 47 47 47 48 48 47 47 47 47
49 51 52 52 53 53 53 55 55 55 56 56 55 54 53 52 51 51 52 53 53 53 54 55 55 54 53 52 50 48 45 43 41 39 37 36 34 32 31 30 30 29 26 24 23 22 23 24 23 21 21 21 21 22 24 25 25 25 26 28 32 34 36 39 40 37 36 38 43 45 45 44 46 47 48 48 48 48 49 50 49 48 49 48 48
47 49 50 52 52 51 51 53 54 55 56 56 55 54 54 53 52 51 52 52 53 54 55 56 56 55 54 53 51 49 46 45 43 41 39 37 35 34 33 32 31 29 26 24 23 22 24 24 23 21 21 21 21 22 23 24 24 25 26 27 31 33 35 38 41 39 37 39 44 47 47 46 46 48 49 48 49 49 49 50 49 49 49 49 48
44 47 49 51 52 50 49 51 53 54 55 55 55 54 54 53 52 52 52 52 53 54 56 57 56 56 55 54 52 50 49 47 45 42 40 38 37 35 34 32 31 28 26 24 23 24 25 24 22 20 20 22 22 21 22 23 23 24 25 27 29 32 34 36 39 40 39 40 44 49 50 48 47 49 50 49 49 49 49 49 49 49 49 49 49
43 46 48 50 50 50 49 50 51 52 53 54 54 53 53 52 52 52 52 53 54 54 55 56 57 57 56 55 54 52 50 48 46 43 41 40 38 36 34 33 31 28 25 24 24 25 25 23 21 19 19 21 21 20 21 22 23 24 25 27 28 30 33 34 37 40 39 39 43 49 51 49 47 50 52 51 49 49 50 51 50 51 51 50 49
41 45 47 48 49 49 49 49 50 50 51 52 52 52 51 51 51 51 52 54 54 55 56 56 56 57 56 56 55 53 51 49 46 44 42 41 39 37 35 33 31 27 25 24 25 24 23 21 20 18 18 20 21 20 20 20 21 23 24 26 28 30 32 34 36 38 38 37 40 46 51 50 47 50 54 52 50 51 53 53 51 51 52 52 51
38 41 44 46 47 47 47 48 48 49 50 50 51 51 50 50 50 51 52 54 55 56 56 56 56 56 56 56 55 53 51 49 47 44 42 41 39 37 35 33 30 27 25 25 24 22 20 19 19 18 18 19 20 20 19 19 20 21 22 25 27 29 32 34 36 36 35 35 36 41 50 51 47 49 54 53 52 55 54 53 52 52 52 52 53
36 38 41 43 45 45 45 46 47 48 49 49 49 49 49 49 49 50 52 54 56 57 57 56 56 56 56 56 54 52 50 48 46 43 41 40 38 37 35 32 29 26 25 25 23 21 19 19 19 19 18 18 18 18 17 18 19 21 23 24 24 26 31 35 36 36 35 34 35 38 46 50 46 47 53 54 55 57 57 54 53 52 52 52 54
33 36 39 40 42 43 44 45 46 47 48 48 47 47 48 48 48 50 52 54 56 57 57 57 56 55 55 54 53 51 49 47 44 41 40 39 38 36 34 32 29 27 26 24 22 21 20 19 19 19 18 16 16 16 16 16 18 20 23 24 23 25 30 34 37 37 37 36 35 35 41 46 45 46 51 55 57 58 58 56 54 52 52 53 54
31 32 35 37 39 41 42 44 45 45 46 46 46 46 47 46 47 50 52 54 56 57 57 56 55 54 53 53 52 50 48 45 43 41 40 40 39 37 35 32 30 29 26 24 23 22 20 19 19 19 16 15 16 16 15 16 17 19 21 23 24 26 29 32 35 38 41 38 35 34 38 42 44 45 48 54 59 60 57 55 55 54 53 54 56
30 31 33 35 37 38 39 41 42 43 44 45 44 45 45 45 47 50 52 53 54 56 56 56 55 54 53 53 51 49 47 44 42 41 41 41 39 37 35 33 31 29 26 25 24 21 19 19 19 17 16 16 16 16 16 17 16 18 20 21 23 26 28 31 33 36 40 40 35 35 38 41 42 44 44 46 55 62 61 57 56 57 56 56 59
Wind_Direction
223 223 223 222 223 223 222 224 227 230 236 243 253 263 273 282 289 293 295 298 302 307 310 314 317 318 320 321 323 326 329 330 331 330 327 322 315 307 299 291 284 278 273 267 263 258 255 252 248 247 246 248 251 253 254 255 256 256 257 259 265 267 266 267 270 275 279 281 282 285 285 282 281 281 278 271 264 259 257 257 257 257 257 258 261
224 224 225 225 225 225 225 225 228 232 238 245 252 261 271 278 284 288 290 294 297 300 304 308 310 312 314 315 318 321 324 327 329 328 326 320 313 304 296 289 282 276 272 268 264 261 258 256 251 249 246 245 248 251 253 253 252 253 254 257 261 262 262 264 269 274 276 275 277 280 282 282 283 285 286 284 278 271 264 260 258 257 257 257 260
225 226 226 227 227 227 228 228 231 234 238 244 250 257 265 271 277 281 285 289 292 295 299 303 306 308 309 312 315 319 322 326 328 328 325 319 312 303 295 287 280 273 270 267 265 262 261 260 257 255 251 249 252 253 254 255 256 257 259 256 257 261 262 264 268 272 272 273 276 278 279 281 282 285 288 289 287 282 275 266 260 258 257 256 258
225 226 226 228 229 229 230 231 233 236 239 243 248 253 259 265 270 274 278 281 286 289 293 298 302 305 307 311 314 318 322 325 327 328 325 319 311 303 295 287 280 273 268 265 262 261 261 260 259 260 260 261 261 257 257 261 264 266 264 260 263 268 272 275 278 277 276 278 281 280 280 281 282 284 287 289 289 288 284 276 269 264 261 257 256
227 227 227 228 230 230 231 232 234 235 237 241 245 251 255 259 263 266 270 274 279 284 289 294 299 303 306 310 312 316 319 323 326 327 324 317 310 303 295 288 282 274 267 262 259 258 257 257 258 260 262 263 260 256 259 264 267 267 264 264 269 274 278 282 284 284 284 286 286 285 285 286 287 288 288 288 288 288 287 283 279 275 270 264 259
229 228 227 228 229 230 231 232 234 235 236 241 244 248 252 255 258 261 265 270 275 279 285 291 297 302 306 309 311 314 316 320 322 324 321 314 308 300 293 286 280 273 266 260 258 256 256 256 257 260 260 258 255 253 255 259 263 262 261 265 269 273 277 281 282 282 284 285 286 287 288 289 289 290 291 291 289 287 286 285 284 281 278 272 265
229 229 229 229 230 231 232 232 233 235 236 240 242 245 249 251 254 257 262 267 272 278 283 290 297 301 305 308 310 312 313 317 319 321 318 312 305 296 288 281 274 269 265 262 262 259 258 258 257 259 258 256 252 249 251 255 257 256 257 262 266 271 275 277 277 277 279 282 284 286 287 289 289 290 291 291 291 290 289 288 286 284 282 279 273
229 229 229 230 232 232 232 232 233 234 236 238 241 243 247 249 252 255 259 263 268 275 282 290 297 301 305 307 308 310 311 314 316 317 316 311 303 292 281 272 265 263 263 264 265 264 263 262 259 258 256 255 253 252 256 259 260 260 262 266 269 273 274 274 273 274 276 279 281 283 286 288 289 289 289 289 290 290 290 289 288 286 284 282 280
229 230 230 231 232 232 231 231 232 233 235 237 239 241 244 247 250 252 255 260 265 272 279 287 294 300 305 307 308 308 309 312 314 315 314 308 297 286 273 262 259 261 266 268 268 267 267 266 264 262 260 260 260 261 265 268 268 270 272 274 275 275 275 274 274 276 278 279 280 282 283 284 286 287 288 289 290 290 290 290 289 288 287 285 283
229 230 230 230 231 231 230 230 230 231 233 235 237 239 241 243 247 250 252 256 262 268 275 283 290 297 303 306 307 307 307 309 310 311 308 298 284 271 259 254 260 268 272 272 271 270 268 268 268 266 266 266 269 271 273 274 275 276 278 279 280 279 280 280 280 281 281 282 281 280 280 281 282 284 287 288 289 291 291 291 291 290 290 288 285
230 230 230 230 230 229 229 229 229 230 232 233 235 237 240 242 245 247 250 254 260 266 272 279 286 293 300 304 305 305 304 305 306 305 298 281 265 253 249 254 265 271 272 271 271 273 273 273 273 273 272 272 274 277 278 279 279 280 283 284 286 286 285 284 283 283 283 283 281 280 281 281 281 282 283 285 287 289 290 291 291 291 290 289 288
230 230 230 230 230 230 229 228 229 230 231 234 236 239 241 243 245 246 249 252 257 262 267 274 281 289 297 301 303 302 300 300 300 297 286 264 248 245 251 257 263 266 268 272 274 277 278 279 279 279 280 280 282 283 284 285 285 286 287 287 287 287 286 286 286 286 285 284 283 283 285 284 283 281 280 281 283 284 286 288 289 290 290 290 289
230 230 230 230 230 229 229 229 229 230 232 235 237 239 239 240 242 243 246 251 255 259 263 269 276 284 293 299 299 296 293 292 294 289 272 251 240 244 258 254 253 263 269 273 275 276 279 280 280 279 280 284 286 287 289 289 289 289 289 288 288 288 288 289 290 289 288 288 289 289 287 286 284 282 281 280 279 280 282 285 287 290 291 292 291
230 230 230 231 230 229 229 229 230 231 232 234 234 235 236 238 240 242 245 249 252 256 260 265 270 278 288 295 295 290 286 286 286 278 258 244 240 247 268 261 250 267 279 275 274 274 276 275 273 272 272 275 277 282 285 284 285 285 286 288 290 293 295 296 296 295 295 295 293 291 288 287 286 285 284 282 280 279 279 280 281 284 286 289 291
230 230 231 231 230 230 230 231 231 233 233 233 233 234 235 238 241 243 245 247 250 254 258 262 265 273 283 289 287 283 285 285 276 257 242 247 252 259 271 261 247 268 286 281 278 274 274 271 269 272 273 273 273 273 274 274 277 279 285 292 296 302 303 303 304 303 303 300 297 295 291 290 288 287 286 284 282 281 280 279 279 279 281 283 286
230 231 231 231 231 230 230 232 232 233 234 235 235 236 238 240 241 242 243 245 248 251 255 258 262 267 273 277 280 281 282 275 249 238 256 266 265 269 274 254 243 267 284 284 286 280 275 275 275 280 283 283 281 279 282 287 298 306 315 320 319 318 315 313 311 309 307 304 302 299 296 294 291 289 288 287 287 286 285 283 282 280 280 280 282
231 231 231 231 231 230 230 232 233 234 234 235 236 238 240 241 241 242 243 246 248 249 251 254 258 262 263 264 270 269 259 251 250 263 272 270 263 270 277 251 245 267 280 282 285 284 283 284 285 289 287 288 290 293 305 322 336 349 354 349 340 330 323 318 313 310 307 305 303 301 299 297 295 294 292 292 291 289 288 287 285 284 281 280 279
231 230 231 230 230 230 230 231 232 233 234 235 236 237 238 239 240 240 242 243 245 246 248 251 253 256 259 261 264 263 258 257 261 267 270 268 269 273 272 259 258 271 280 282 280 280 283 283 285 290 285 286 298 309 332 4 18 23 11 357 343 331 324 318 313 311 308 306 304 302 300 298 297 296 295 295 294 293 293 291 290 289 286 283 281
231 231 231 231 230 230 231 232 233 234 234 235 235 236 237 238 239 239 240 241 242 244 247 249 249 250 254 258 262 264 263 262 260 260 263 266 271 274 272 272 271 273 282 286 279 277 279 282 287 290 284 295 330 349 14 43 46 28 7 354 344 336 330 325 321 319 315 312 310 307 304 302 300 300 298 297 296 295 295 294 294 293 290 288 286
232 232 232 231 231 231 231 232 232 233 234 234 235 236 236 236 237 236 237 238 241 244 246 247 247 248 250 253 258 260 261 262 262 261 260 263 267 269 272 276 277 279 288 291 285 282 283 287 294 299 310 342 4 6 17 40 30 9 358 351 346 342 337 334 331 328 325 322 319 316 313 310 307 304 302 301 299 298 297 296 296 295 293 292 291
233 233 232 232 232 232 232 232 233 233 234 234 235 235 235 236 236 237 237 238 240 242 244 247 248 249 250 251 252 254 256 258 260 262 263 265 268 268 269 273 279 287 294 296 292 291 292 294 302 312 329 353 1 1 10 17 5 357 354 351 348 345 341 339 337 335 332 329 326 323 320 317 313 310 307 305 304 302 300 299 298 298 296 295 295
234 234 233 233 233 233 233 234 234 234 235 235 235 234 235 236 237 238 239 240 241 242 244 246 247 248 250 251 251 251 252 254 257 261 263 268 273 275 277 279 284 290 294 296 295 296 299 299 302 309 322 343 352 356 358 355 353 353 353 352 350 348 344 342 340 338 335 332 330 327 325 322 320 317 315 313 311 309 307 306 305 304 302 300 298
235 235 235 234 234 234 235 235 235 235 235 235 235 235 236 236 237 237 238 239 240 242 243 244 245 246 248 251 254 255 255 257 258 259 261 266 272 278 282 285 288 291 290 292 292 295 300 297 295 303 315 335 347 352 349 347 350 353 354 353 352 348 345 343 341 338 335 333 331 330 328 326 325 323 321 319 318 316 315 314 313 312 310 308 305
237 236 236 235 235 235 235 235 235 236 236 236 236 236 236 236 237 237 238 238 239 240 242 243 245 247 249 252 254 255 257 258 259 259 260 263 268 275 281 286 291 293 293 292 290 292 294 290 292 303 316 333 345 348 346 345 346 350 352 351 348 345 343 342 340 337 335 333 332 330 329 328 326 325 324 323 322 321 321 320 319 318 316 314 312
238 238 237 236 236 236 236 236 237 237 237 237 237 236 236 236 236 237 238 238 239 241 243 245 248 249 251 252 252 253 256 257 258 258 259 261 264 271 280 288 294 296 297 296 292 291 289 287 291 302 315 331 341 342 342 342 342 345 347 347 345 342 341 340 338 336 334 332 331 330 328 327 326 325 325 324 324 323 322 321 320 319 317 316 314
243 242 241 240 239 238 238 239 239 240 240 239 238 237 236 236 236 237 238 239 240 242 244 245 247 248 249 249 251 253 255 257 259 260 261 262 263 268 277 286 292 295 297 297 298 295 290 288 292 300 310 321 331 335 336 337 339 341 343 343 343 341 339 339 337 334 332 331 330 329 327 326 325 325 324 323 323 322 321 320 319 318 316 315 314
247 247 246 245 243 242 241 241 240 241 241 241 240 238 237 236 236 237 237 238 240 241 243 244 244 246 247 249 252 253 255 257 260 262 263 263 263 266 272 279 285 289 292 294 297 297 292 292 294 298 308 316 323 331 334 336 337 338 340 341 340 339 337 336 334 332 331 330 329 328 326 325 324 324 323 322 321 320 319 318 317 316 314 314 313
250 250 249 248 247 245 244 243 242 242 241 242 241 240 238 237 236 236 236 237 239 240 242 243 244 245 247 249 252 253 255 258 260 261 262 262 262 264 269 275 279 283 287 289 291 292 292 298 302 302 310 319 324 328 332 335 335 335 337 338 337 335 334 332 331 330 330 329 328 326 325 324 323 322 321 320 319 318 317 316 315 313 312 312 311
250 250 250 249 248 247 245 245 244 243 243 242 242 241 240 238 238 237 237 238 238 240 241 242 243 244 246 248 250 252 254 256 258 260 261 263 264 267 271 275 277 279 280 281 283 285 287 294 299 298 305 315 321 326 329 331 331 331 333 334 333 331 330 329 329 329 328 326 325 323 322 321 321 320 319 318 317 316 315 313 312 311 310 310 309
250 250 250 249 248 247 245 244 244 243 243 243 242 241 240 239 239 238 238 238 238 239 240 241 242 243 244 246 248 250 252 254 257 260 262 264 266 268 271 273 276 277 275 273 275 277 280 283 284 286 294 302 310 318 321 323 326 326 327 328 327 326 325 325 326 326 325 323 321 320 319 319 319 318 317 315 314 313 312 311 310 309 309 308 308
251 251 250 249 248 247 245 244 242 242 242 242 242 241 240 239 239 238 238 237 238 239 239 240 241 242 243 245 246 248 251 253 256 258 261 264 266 267 269 272 275 276 273 270 268 269 272 274 275 279 285 289 295 303 305 309 315 317 320 322 322 321 320 321 322 322 321 320 319 319 319 319 318 316 315 313 311 310 309 308 308 307 307 307 306
253 252 252 251 250 249 247 245 243 242 241 242 242 242 241 240 239 239 238 238 238 238 239 240 240 241 242 243 245 247 249 251 254 256 259 262 263 265 268 271 274 275 273 269 267 268 270 270 272 278 284 287 290 295 295 297 303 307 311 314 314 315 316 317 318 319 318 318 318 319 319 319 317 315 313 311 309 308 307 307 307 307 306 306 306
254 254 253 253 252 252 250 247 245 243 242 242 242 241 241 240 240 239 238 238 238 238 238 239 239 239 240 242 243 245 247 249 251 254 257 259 261 263 267 270 273 273 272 270 269 269 268 269 274 278 282 286 291 296 297 299 303 307 309 310 309 310 312 313 314 314 314 315 317 318 318 318 316 315 313 312 310 310 309 309 309 309 309 309 308
257 256 255 254 254 253 252 250 247 245 243 242 241 241 240 240 240 239 238 237 237 237 237 237 238 238 239 240 241 243 245 247 249 252 255 257 259 261 264 267 269 271 271 270 270 271 270 270 275 280 282 286 294 301 304 306 310 313 313 312 311 311 312 312 311 311 312 313 315 316 316 315 314 314 314 313 313 313 313 313 313 313 313 312 311
259 258 257 256 255 254 253 252 249 246 244 242 241 240 239 239 239 239 238 238 237 237 237 237 237 237 238 239 240 241 243 245 248 251 253 255 257 259 261 263 265 268 269 270 270 272 274 272 274 281 287 292 300 307 310 312 315 317 318 317 316 315 316 314 313 314 315 316 317 318 317 316 316 315 314 314 314 313 313 315 315 315 315 314 313
260 259 258 257 256 255 254 252 251 249 246 243 241 239 238 238 238 238 238 238 238 238 238 237 237 237 237 238 239 241 242 244 247 249 252 253 255 257 258 260 262 264 266 267 268 270 273 274 276 283 290 297 303 308 312 315 318 320 322 322 320 320 320 319 318 319 321 322 323 323 322 321 320 318 317 316 316 316 318 319 318 317 316 315 314
260 260 258 257 256 255 254 253 252 251 248 245 242 240 239 238 238 238 239 238 238 238 238 237 237 237 237 238 239 240 241 243 245 248 250 252 254 255 256 257 259 260 261 262 265 268 272 277 281 285 292 297 303 308 313 317 318 318 319 320 323 326 326 324 324 324 326 326 325 324 323 321 319 318 318 319 319 320 322 321 320 320 320 318 316
261 260 259 257 257 256 255 254 253 252 250 247 244 242 240 239 238 238 238 239 239 238 238 237 237 237 237 238 238 239 240 242 244 246 248 250 252 253 253 254 255 256 256 259 263 267 272 278 283 287 291 296 303 309 314 317 317 316 317 319 323 326 326 324 325 328 329 326 325 324 323 321 320 320 320 321 322 323 323 322 323 324 323 319 316
262 261 260 258 258 258 256 254 253 252 250 248 246 243 241 239 238 237 238 238 238 237 237 237 237 237 237 237 237 238 238 240 242 244 245 247 249 249 250 252 252 252 254 257 261 266 272 277 282 286 289 295 303 308 312 315 314 316 321 323 322 323 322 322 323 326 327 325 325 325 323 322 323 324 325 326 325 324 325 326 327 326 323 320 317
262 262 261 259 259 258 256 254 253 252 251 249 247 244 241 239 238 237 237 237 237 237 236 236 236 236 236 237 237 237 238 239 240 242 243 244 245 246 247 249 249 250 253 256 260 265 270 274 278 282 288 296 304 307 311 314 314 318 323 323 321 321 322 322 323 325 326 326 326 325 324 326 327 327 327 326 324 325 326 327 328 325 322 319 317
264 262 260 259 258 258 256 254 252 251 250 250 248 246 243 240 239 237 237 237 236 236 236 235 235 235 235 235 236 236 236 237 238 240 241 242 242 243 245 247 248 249 251 254 258 263 268 270 273 279 288 297 303 307 310 313 317 321 323 320 318 319 321 321 323 326 328 330 328 325 326 328 328 326 326 324 323 325 327 327 326 323 320 319 318
266 262 260 258 257 257 256 253 252 251 250 250 249 248 246 243 241 239 238 237 236 236 235 235 234 233 233 233 234 234 234 235 237 238 238 239 240 242 243 244 245 247 249 252 257 262 265 267 272 280 290 297 303 306 309 313 317 319 319 318 317 319 321 321 322 326 331 332 327 323 324 327 326 324 324 323 323 326 326 325 323 321 319 318 317
267 264 261 259 257 257 256 253 252 252 252 251 250 249 247 245 242 240 239 239 238 236 236 235 234 233 232 232 232 232 232 233 234 235 236 237 239 240 242 242 243 245 248 252 257 260 262 266 273 282 291 297 302 305 308 311 313 315 316 316 317 320 322 323 323 325 331 332 326 321 322 325 325 323 321 320 323 325 324 322 320 318 318 316 315
269 266 263 260 258 257 255 253 252 252 252 252 251 249 248 246 243 241 240 240 239 238 237 236 235 234 232 232 231 230 231 232 233 234 234 236 237 239 239 240 241 243 247 252 256 258 261 267 276 285 292 296 299 302 304 306 308 311 313 315 318 320 322 322 321 323 329 330 325 321 321 323 323 321 318 319 322 323 320 318 317 317 317 316 315
271 267 264 261 258 257 255 253 252 251 251 251 250 249 248 247 245 242 240 240 240 239 238 237 235 233 232 231 230 230 230 231 231 232 233 235 237 237 236 237 239 242 246 251 254 257 263 271 278 284 289 292 295 298 300 301 304 308 312 315 318 319 319 318 317 321 327 328 324 320 318 319 321 318 316 318 322 320 317 316 317 319 318 316 314
272 268 266 262 259 257 254 252 251 251 251 251 250 249 248 247 245 243 241 240 240 240 239 238 236 235 233 232 231 230 230 230 230 231 232 234 236 236 235 235 237 240 244 248 253 259 264 269 274 280 284 286 289 292 293 296 302 309 312 312 313 316 315 314 315 318 323 324 322 319 315 316 319 316 315 318 321 317 315 316 318 319 317 315 312
276 272 268 264 262 259 255 253 251 251 251 251 249 249 248 246 245 243 241 240 240 240 239 238 236 235 234 233 232 231 231 231 231 231 232 234 236 235 235 235 236 239 242 247 253 257 261 263 268 274 276 277 281 285 290 298 303 306 305 304 309 313 310 309 311 314 318 320 321 318 313 314 317 316 315 318 319 316 315 317 318 317 315 314 313
280 274 269 266 263 261 258 255 253 252 252 250 249 248 247 245 244 243 241 240 240 239 238 237 236 234 233 232 231 231 231 231 231 232 233 234 235 234 233 234 236 237 240 244 249 252 253 256 261 266 269 272 278 284 291 297 298 298 299 301 308 310 306 306 309 313 316 318 320 318 312 311 316 318 316 318 318 315 314 316 316 315 315 315 315
286 279 273 269 265 262 259 256 254 253 252 250 249 248 246 245 243 242 241 239 238 238 237 236 234 233 233 232 231 231 231 231 231 231 232 233 233 232 232 233 234 235 237 241 243 243 245 250 257 263 267 273 277 282 287 288 289 292 295 301 307 307 305 307 311 314 315 316 319 319 311 310 316 319 317 317 315 312 313 315 315 315 315 316 313
292 285 279 273 267 263 260 257 256 254 253 252 250 248 246 244 243 242 240 239 238 237 236 235 234 232 232 231 230 231 231 230 230 230 231 232 231 230 231 232 233 235 236 236 236 236 240 247 254 259 263 268 272 276 279 280 282 288 294 301 306 305 305 308 311 312 312 313 319 320 311 311 316 318 317 317 313 310 312 313 314 314 315 314 312
295 287 281 274 269 266 263 260 258 255 254 253 250 248 246 244 242 241 239 238 237 237 235 234 232 231 230 229 228 228 228 228 229 230 232 232 230 230 231 231 233 234 233 231 232 234 240 246 250 253 256 261 267 270 272 275 280 287 293 299 302 303 305 307 309 310 309 311 320 321 313 312 314 315 315 314 310 310 312 313 313 314 315 315 312